Time,TemperatureF,DewpointF,PressureIn,WindDirection,WindDirectionDegrees,WindSpeedMPH,WindSpeedGustMPH,Humidity,HourlyPrecipIn,Conditions,Clouds,dailyrainin,SoftwareType,DateUTC
2013-05-04 00:11:00,54.2,10.0,29.54,SW,226,8.0,12.0,17,0.00,,,0.00,weatherlink.com 1.10,2013-05-04 07:11:00,
2013-05-04 00:26:00,54.5,9.0,29.54,WSW,239,12.0,15.0,16,0.00,,,0.00,weatherlink.com 1.10,2013-05-04 07:26:00,
2013-05-04 00:41:00,54.1,10.0,29.53,West,269,9.0,14.0,17,0.00,,,0.00,weatherlink.com 1.10,2013-05-04 07:41:00,
2013-05-04 00:56:00,54.3,10.0,29.53,East,97,8.0,14.0,17,0.00,,,0.00,weatherlink.com 1.10,2013-05-04 07:56:00,
2013-05-04 01:11:00,54.0,10.0,29.51,WSW,239,5.0,13.0,17,0.00,,,0.00,weatherlink.com 1.10,2013-05-04 08:11:00,
2013-05-04 01:26:00,54.0,10.0,29.51,SW,228,7.0,13.0,17,0.00,,,0.00,weatherlink.com 1.10,2013-05-04 08:26:00,
2013-05-04 01:42:00,53.8,10.0,29.50,WSW,251,4.0,13.0,17,0.00,,,0.00,weatherlink.com 1.10,2013-05-04 08:42:00,
2013-05-04 01:57:00,53.8,10.0,29.50,WSW,245,8.0,11.0,17,0.00,,,0.00,weatherlink.com 1.10,2013-05-04 08:57:00,
2013-05-04 02:12:00,53.8,10.0,29.49,SW,221,6.0,11.0,17,0.00,,,0.00,weatherlink.com 1.10,2013-05-04 09:12:00,
2013-05-04 02:27:00,53.9,8.0,29.49,SW,224,9.0,12.0,16,0.00,,,0.00,weatherlink.com 1.10,2013-05-04 09:27:00,
2013-05-04 02:42:00,53.4,9.0,29.48,West,273,10.0,12.0,17,0.00,,,0.00,weatherlink.com 1.10,2013-05-04 09:42:00,
2013-05-04 02:57:00,53.7,8.0,29.48,WSW,239,8.0,15.0,16,0.00,,,0.00,weatherlink.com 1.10,2013-05-04 09:57:00,
2013-05-04 03:12:00,53.3,8.0,29.47,SW,224,9.0,11.0,16,0.00,,,0.00,weatherlink.com 1.10,2013-05-04 10:12:00,
2013-05-04 03:27:00,53.2,8.0,29.47,West,261,6.0,13.0,16,0.00,,,0.00,weatherlink.com 1.10,2013-05-04 10:27:00,
2013-05-04 03:42:00,53.2,9.0,29.47,SW,229,6.0,12.0,17,0.00,,,0.00,weatherlink.com 1.10,2013-05-04 10:42:00,
2013-05-04 03:57:00,53.3,9.0,29.46,WNW,291,9.0,12.0,17,0.00,,,0.00,weatherlink.com 1.10,2013-05-04 10:57:00,
2013-05-04 04:12:00,53.6,10.0,29.46,SW,229,8.0,16.0,17,0.00,,,0.00,weatherlink.com 1.10,2013-05-04 11:12:00,
2013-05-04 04:27:00,53.2,10.0,29.45,West,267,10.0,14.0,18,0.00,,,0.00,weatherlink.com 1.10,2013-05-04 11:27:00,
2013-05-04 04:42:00,53.5,9.0,29.45,SW,220,10.0,17.0,17,0.00,,,0.00,weatherlink.com 1.10,2013-05-04 11:42:00,
2013-05-04 04:57:00,53.4,9.0,29.45,WSW,239,8.0,17.0,17,0.00,,,0.00,weatherlink.com 1.10,2013-05-04 11:57:00,
2013-05-04 05:13:00,53.2,9.0,29.45,WSW,242,11.0,17.0,17,0.00,,,0.00,weatherlink.com 1.10,2013-05-04 12:13:00,
2013-05-04 05:28:00,53.1,9.0,29.45,West,276,5.0,15.0,17,0.00,,,0.00,weatherlink.com 1.10,2013-05-04 12:28:00,
2013-05-04 05:43:00,53.0,9.0,29.46,West,278,13.0,15.0,17,0.00,,,0.00,weatherlink.com 1.10,2013-05-04 12:43:00,
2013-05-04 05:58:00,53.3,9.0,29.46,SW,236,10.0,15.0,17,0.00,,,0.00,weatherlink.com 1.10,2013-05-04 12:58:00,
2013-05-04 06:13:00,53.2,10.0,29.45,WSW,242,9.0,14.0,18,0.00,,,0.00,weatherlink.com 1.10,2013-05-04 13:13:00,
2013-05-04 06:28:00,53.4,9.0,29.45,WSW,250,10.0,16.0,17,0.00,,,0.00,weatherlink.com 1.10,2013-05-04 13:28:00,
2013-05-04 06:43:00,53.6,11.0,29.45,SW,221,7.0,14.0,18,0.00,,,0.00,weatherlink.com 1.10,2013-05-04 13:43:00,
2013-05-04 06:58:00,53.6,11.0,29.46,SSE,154,2.0,7.0,18,0.00,,,0.00,weatherlink.com 1.10,2013-05-04 13:58:00,
2013-05-04 07:13:00,53.9,11.0,29.46,SSW,197,2.0,10.0,18,0.00,,,0.00,weatherlink.com 1.10,2013-05-04 14:13:00,
2013-05-04 07:28:00,54.2,10.0,29.46,SE,145,4.0,10.0,17,0.00,,,0.00,weatherlink.com 1.10,2013-05-04 14:28:00,
2013-05-04 07:43:00,54.7,12.0,29.45,SSW,210,2.0,8.0,18,0.00,,,0.00,weatherlink.com 1.10,2013-05-04 14:43:00,
2013-05-04 07:58:00,55.0,11.0,29.45,SW,230,8.0,12.0,17,0.00,,,0.00,weatherlink.com 1.10,2013-05-04 14:58:00,
2013-05-04 08:13:00,55.2,11.0,29.45,SW,221,6.0,9.0,17,0.00,,,0.00,weatherlink.com 1.10,2013-05-04 15:13:00,
2013-05-04 08:29:00,56.0,12.0,29.45,West,270,3.0,9.0,17,0.00,,,0.00,weatherlink.com 1.10,2013-05-04 15:29:00,
2013-05-04 08:44:00,56.8,12.0,29.45,NNW,340,2.0,10.0,17,0.00,,,0.00,weatherlink.com 1.10,2013-05-04 15:44:00,
2013-05-04 08:59:00,56.4,10.0,29.45,SSE,157,6.0,12.0,16,0.00,,,0.00,weatherlink.com 1.10,2013-05-04 15:59:00,
2013-05-04 09:14:00,56.4,12.0,29.45,West,260,6.0,10.0,17,0.00,,,0.00,weatherlink.com 1.10,2013-05-04 16:14:00,
2013-05-04 09:29:00,56.5,12.0,29.46,SSW,210,3.0,13.0,17,0.00,,,0.00,weatherlink.com 1.10,2013-05-04 16:29:00,
2013-05-04 09:44:00,57.1,14.0,29.46,SSW,207,5.0,10.0,18,0.00,,,0.00,weatherlink.com 1.10,2013-05-04 16:44:00,
2013-05-04 09:59:00,58.1,13.0,29.45,West,266,6.0,10.0,17,0.00,,,0.00,weatherlink.com 1.10,2013-05-04 16:59:00,
2013-05-04 10:14:00,57.9,14.0,29.45,SW,221,4.0,13.0,18,0.00,,,0.00,weatherlink.com 1.10,2013-05-04 17:14:00,
2013-05-04 10:29:00,57.9,13.0,29.45,WSW,248,5.0,17.0,17,0.00,,,0.00,weatherlink.com 1.10,2013-05-04 17:29:00,
2013-05-04 10:44:00,58.1,13.0,29.45,SSE,155,6.0,20.0,17,0.00,,,0.00,weatherlink.com 1.10,2013-05-04 17:44:00,
2013-05-04 10:59:00,58.9,14.0,29.45,West,264,3.0,12.0,17,0.00,,,0.00,weatherlink.com 1.10,2013-05-04 17:59:00,
2013-05-04 11:14:00,59.4,14.0,29.45,SW,226,13.0,13.0,17,0.00,,,0.00,weatherlink.com 1.10,2013-05-04 18:14:00,
2013-05-04 11:29:00,59.0,14.0,29.45,East,96,2.0,19.0,17,0.00,,,0.00,weatherlink.com 1.10,2013-05-04 18:29:00,
2013-05-04 11:44:00,59.9,15.0,29.44,SSE,166,4.0,17.0,17,0.00,,,0.00,weatherlink.com 1.10,2013-05-04 18:44:00,
2013-05-04 11:59:00,60.9,14.0,29.44,WSW,253,12.0,17.0,16,0.00,,,0.00,weatherlink.com 1.10,2013-05-04 18:59:00,
2013-05-04 12:14:00,60.9,14.0,29.43,West,280,12.0,21.0,16,0.00,,,0.00,weatherlink.com 1.10,2013-05-04 19:14:00,
2013-05-04 12:29:00,60.8,14.0,29.43,South,172,8.0,17.0,16,0.00,,,0.00,weatherlink.com 1.10,2013-05-04 19:29:00,
2013-05-04 12:44:00,61.0,13.0,29.43,SSE,148,1.0,19.0,15,0.00,,,0.00,weatherlink.com 1.10,2013-05-04 19:44:00,
2013-05-04 12:59:00,60.8,14.0,29.41,West,276,2.0,17.0,16,0.00,,,0.00,weatherlink.com 1.10,2013-05-04 19:59:00,
2013-05-04 13:14:00,62.9,14.0,29.41,SW,219,13.0,18.0,15,0.00,,,0.00,weatherlink.com 1.10,2013-05-04 20:14:00,
2013-05-04 13:30:00,63.6,15.0,29.41,SSW,201,16.0,21.0,15,0.00,,,0.00,weatherlink.com 1.10,2013-05-04 20:30:00,
2013-05-04 13:45:00,63.5,13.0,29.41,SSW,204,6.0,13.0,14,0.00,,,0.00,weatherlink.com 1.10,2013-05-04 20:45:00,
2013-05-04 14:00:00,63.3,15.0,29.40,NW,322,1.0,17.0,15,0.00,,,0.00,weatherlink.com 1.10,2013-05-04 21:00:00,
2013-05-04 14:15:00,63.6,13.0,29.40,South,174,3.0,13.0,14,0.00,,,0.00,weatherlink.com 1.10,2013-05-04 21:15:00,
2013-05-04 14:30:00,63.9,17.0,29.39,WSW,253,4.0,20.0,16,0.00,,,0.00,weatherlink.com 1.10,2013-05-04 21:30:00,
2013-05-04 14:45:00,65.8,17.0,29.38,SSE,154,2.0,8.0,15,0.00,,,0.00,weatherlink.com 1.10,2013-05-04 21:45:00,
2013-05-04 15:00:00,64.5,16.0,29.38,SW,221,7.0,13.0,15,0.00,,,0.00,weatherlink.com 1.10,2013-05-04 22:00:00,
2013-05-04 15:15:00,63.2,17.0,29.37,SW,215,13.0,17.0,17,0.00,,,0.00,weatherlink.com 1.10,2013-05-04 22:15:00,
2013-05-04 15:30:00,61.9,18.0,29.37,SW,226,17.0,25.0,18,0.00,,,0.00,weatherlink.com 1.10,2013-05-04 22:30:00,
2013-05-04 15:45:00,62.5,18.0,29.36,SSW,210,12.0,17.0,18,0.00,,,0.00,weatherlink.com 1.10,2013-05-04 22:45:00,
2013-05-04 16:00:00,62.4,18.0,29.36,West,262,8.0,19.0,18,0.00,,,0.00,weatherlink.com 1.10,2013-05-04 23:00:00,
2013-05-04 16:15:00,62.1,18.0,29.36,WSW,242,4.0,21.0,18,0.00,,,0.00,weatherlink.com 1.10,2013-05-04 23:15:00,
2013-05-04 16:30:00,62.9,16.0,29.36,West,269,7.0,13.0,16,0.00,,,0.00,weatherlink.com 1.10,2013-05-04 23:30:00,
2013-05-04 16:45:00,62.6,16.0,29.37,SW,221,7.0,16.0,16,0.00,,,0.00,weatherlink.com 1.10,2013-05-04 23:45:00,
2013-05-04 17:00:00,62.4,15.0,29.36,SW,226,3.0,15.0,16,0.00,,,0.00,weatherlink.com 1.10,2013-05-05 00:00:00,
2013-05-04 17:15:00,61.6,13.0,29.36,WNW,285,9.0,25.0,15,0.00,,,0.00,weatherlink.com 1.10,2013-05-05 00:15:00,
2013-05-04 17:30:00,61.7,12.0,29.36,North,356,8.0,22.0,14,0.00,,,0.00,weatherlink.com 1.10,2013-05-05 00:30:00,
2013-05-04 17:45:00,61.3,11.0,29.36,West,270,5.0,22.0,14,0.00,,,0.00,weatherlink.com 1.10,2013-05-05 00:45:00,
2013-05-04 18:00:00,60.8,11.0,29.36,SW,230,13.0,19.0,14,0.00,,,0.00,weatherlink.com 1.10,2013-05-05 01:00:00,
2013-05-04 18:15:00,60.3,11.0,29.36,NNE,22,10.0,18.0,14,0.00,,,0.00,weatherlink.com 1.10,2013-05-05 01:15:00,
2013-05-04 18:30:00,59.7,10.0,29.36,SW,218,3.0,18.0,14,0.00,,,0.00,weatherlink.com 1.10,2013-05-05 01:30:00,
2013-05-04 18:45:00,58.6,11.0,29.36,WSW,249,11.0,17.0,15,0.00,,,0.00,weatherlink.com 1.10,2013-05-05 01:45:00,
2013-05-04 19:00:00,57.5,11.0,29.36,SW,229,12.0,21.0,16,0.00,,,0.00,weatherlink.com 1.10,2013-05-05 02:00:00,
2013-05-04 19:15:00,57.0,14.0,29.36,SSW,201,7.0,17.0,18,0.00,,,0.00,weatherlink.com 1.10,2013-05-05 02:15:00,
2013-05-04 19:30:00,56.6,16.0,29.37,West,277,18.0,21.0,20,0.00,,,0.00,weatherlink.com 1.10,2013-05-05 02:30:00,
2013-05-04 19:45:00,56.4,17.0,29.37,SW,218,4.0,22.0,21,0.00,,,0.00,weatherlink.com 1.10,2013-05-05 02:45:00,
2013-05-04 20:00:00,55.9,18.0,29.37,SW,236,7.0,16.0,23,0.00,,,0.00,weatherlink.com 1.10,2013-05-05 03:00:00,
2013-05-04 20:15:00,55.7,19.0,29.38,WSW,251,4.0,22.0,24,0.00,,,0.00,weatherlink.com 1.10,2013-05-05 03:15:00,
2013-05-04 20:30:00,55.1,20.0,29.38,SW,229,7.0,18.0,25,0.00,,,0.00,weatherlink.com 1.10,2013-05-05 03:30:00,
2013-05-04 20:45:00,54.7,20.0,29.38,West,273,5.0,19.0,26,0.00,,,0.00,weatherlink.com 1.10,2013-05-05 03:45:00,
2013-05-04 21:16:00,54.2,23.0,29.39,SSW,212,5.0,22.0,30,0.00,,,0.00,weatherlink.com 1.10,2013-05-05 04:16:00,
2013-05-04 21:31:00,53.8,24.0,29.39,SW,222,6.0,19.0,31,0.00,,,0.00,weatherlink.com 1.10,2013-05-05 04:31:00,
2013-05-04 21:46:00,53.5,23.0,29.39,SSE,162,16.0,28.0,31,0.00,,,0.00,weatherlink.com 1.10,2013-05-05 04:46:00,
2013-05-04 22:01:00,53.2,22.0,29.39,SSW,200,13.0,25.0,30,0.00,,,0.00,weatherlink.com 1.10,2013-05-05 05:01:00,
2013-05-04 22:16:00,52.9,22.0,29.39,SSE,155,3.0,24.0,30,0.00,,,0.00,weatherlink.com 1.10,2013-05-05 05:16:00,
2013-05-04 22:31:00,52.3,20.0,29.39,SE,134,6.0,17.0,28,0.00,,,0.00,weatherlink.com 1.10,2013-05-05 05:31:00,
2013-05-04 22:46:00,51.9,19.0,29.39,SW,236,9.0,21.0,27,0.00,,,0.00,weatherlink.com 1.10,2013-05-05 05:46:00,
2013-05-04 23:01:00,51.5,18.0,29.39,WNW,287,6.0,23.0,27,0.00,,,0.00,weatherlink.com 1.10,2013-05-05 06:01:00,
2013-05-04 23:16:00,51.1,19.0,29.40,NNW,340,3.0,17.0,28,0.00,,,0.00,weatherlink.com 1.10,2013-05-05 06:16:00,
2013-05-04 23:31:00,50.8,18.0,29.40,WNW,300,7.0,24.0,27,0.00,,,0.00,weatherlink.com 1.10,2013-05-05 06:31:00,
2013-05-04 23:46:00,50.4,18.0,29.41,SSE,158,7.0,20.0,28,0.00,,,0.00,weatherlink.com 1.10,2013-05-05 06:46:00,